Hourly Data Report for October 19, 2015

All times are specified in Local Standard Time (LST). Add 1 hour to adjust for Daylight Saving Time where and when it is observed.

CAPE DORSET A
NUNAVUT

64°13'49.000" N
76°31'30.000" W
48.20 m
2400637
71366
YTE

Download Data

Hourly Data (October 2015)
Hourly Data Report for October 19, 2015
Temp Definition
°C
Dew Point Temp Definition
°C
Rel Hum Definition
%
Wind Dir Definition
10's deg

Wind Spd Definition
km/h
Visibility Definition
km
Stn Press Definition
kPa
Hmdx Definition


Wind Chill Definition


Weather Definition


TIME
00:00 Legend Double Dagger -5.4 -7.9 83 7 18 16.1 99.94   -12 LegendNANA
01:00 Legend Double Dagger -4.4 -7.9 77 10 24 16.1 99.85   -11 LegendNANA
02:00 Legend Double Dagger -4.2 -7.9 75 10 30 16.1 99.75   -12 LegendNANA
03:00 Legend Double Dagger -4.0 -7.1 79 10 32 16.1 99.66   -12 LegendNANA
04:00 Legend Double Dagger -3.7 -6.7 80 10 39 16.1 99.56   -12 Snow
05:00 Legend Double Dagger -3.3 -6.5 79 10 39 16.1 99.48   -12 LegendNANA
06:00 Legend Double Dagger -3.0 -7.3 72 10 43 16.1 99.39   -12 LegendNANA
07:00 Legend Double Dagger -2.7 -7.1 72 11 46 16.1 99.31   -12 LegendNANA
08:00 Legend Double Dagger -2.8 -7.3 71 11 52 16.1 99.24   -12 LegendNANA
09:00 Legend Double Dagger -2.7 -7.7 69 11 46 16.1 99.16   -12 LegendNANA
10:00 Legend Double Dagger -2.5 -7.2 70 11 54 16.1 99.05   -12 LegendNANA
11:00 Legend Double Dagger -2.4 -7.1 70 10 52 16.1 99.01   -12 Snow
12:00 Legend Double Dagger -2.3 -6.8 71 10 54 16.1 98.95   -12 LegendNANA
13:00 Legend Double Dagger -2.5 -6.3 76 9 58 16.1 98.93   -12 LegendNANA
14:00 Legend Double Dagger -2.8 -5.2 84 9 63 4.8 98.87   -13 Snow
15:00 Legend Double Dagger -3.4 -4.8 90 8 55 4.8 98.90   -13 Snow
16:00 Legend Double Dagger -3.5 -4.2 95 7 55 1.2 98.88   -13 Snow
17:00 Legend Double Dagger -3.8 -4.6 94 6 43 4.8 98.95   -13 Snow
18:00 Legend Double Dagger -3.7 -4.3 96 7 43 2.8 98.98   -13 Snow
19:00 Legend Double Dagger -3.3 -3.9 96 7 41 2.8 98.99   -12 Snow
20:00 Legend Double Dagger -3.4 -4.1 95 7 46 2.8 99.03   -12 Snow
21:00 Legend Double Dagger -3.5 -4.5 93 7 39 8.1 99.09   -12 Snow
22:00 Legend Double Dagger -3.9 -5.0 92 6 39 16.1 99.15   -13 LegendNANA
23:00 Legend Double Dagger -4.0 -5.1 92 6 34 16.1 99.19   -12 LegendNANA

Notes on Data Quality.

Legend

  • E = Estimated
  • M = Missing
  • NA = Not Available
  • ‡ = Partner data that is not subject to review by the National Climate Archives
Date modified: